Вернуться в каталог

COSMOS 2401 DEB

LostPO
NORAD 29419·DEBRIS·🇷🇺 Russia

Запущен Aug 19, 2003 с Plesetsk Cosmodrome

Loading…

Ближайшие Пролёты (ближайшие 24 часа)

TLE

УстаревшееSource: Space-Track

Эпоха: Sep 26, 2013, 07:34 UTC

1 29419U 03037D   13269.31584321 -.00000006  00000-0 -11172-3 0  9999
2 29419 082.4743 001.2945 0025061 143.0229 343.4308 12.45652785455858

Отслеживайте COSMOS 2401 DEB в реальном времени с AllMySat

Download on the App Store